Hauptseite
METAR-TAF:

METAR-TAF

Flughäfen :

Bohrplattform

J6-a, Niederlande

Breite: 53-49-27N, Länge: 2-56-43E, Höhe: 34 m

Beobachtung

Neuester Wetterbericht von vor 41 Minuten, um 07:25 UTC
Wind 13 kt aus Ost/Südost, variierte zwischen Ost und Süd
Temperatur 15°C
Luftfeuchtigkeit 77%
Luftdruck 1026 hPa
Sichtweite 10 km oder mehr

METAR: EHJA 310725Z AUTO 12013KT 080V170 9999 NCD 15/11 Q1026

Zeit: 10:06 (08:06 UTC)


TAF: fehlend

Wetterbeobachtungen und Prognosen von mehr als 4000 Flughäfen (METAR und TAF Bericht).

Die verfügbaren Stationen werden durch gelbe und rote Markierungen auf der Karte dargestellt.

Führen Sie die Maus auf sie, um den Namen der Station zu sehen.

Darauf klicken, um die Beobachtung von Wetterbeobachtungen und Prognosen zu sehen.

Um die Karte zu ändern : klicken Sie auf den grünen Tasten mit einem schwarzen Kreuz Zum Vergrößern, auf den grünen Button mit einem Gedankenstrich zu verkleinern, oder auf die grünen Pfeile für benachbarte Karten.


METAR-TAF: